Location: Rowland
(34.5359°N, 79.2929°W)
Time: 20:17:03
(UTC+00:00)

Vanguard 2 - Pass Details

Date: 09 October 2022
Orbit: 553 x 2933 km, 32.9° (Epoch: 06 December)

Event Time Altitude Azimuth Distance (km) Brightness Sun altitude
Rises 00:45:19 0° 275° (W) 6,494 13.7 -24.2°
Reaches altitude 10° 00:51:51 10° 258° (WSW) 5,687 12.8 -25.5°
Maximum altitude 01:01:24 17° 225° (SW) 5,135 12.0 -27.4°
Drops below altitude 10° 01:10:47 10° 191° (S) 5,510 11.8 -29.3°
Sets 01:17:07 0° 173° (S) 6,208 12.0 -30.6°
